Date String (YYYY-MM-DD hh:mm:ss) UTC,Instrument flags,Ambient pressure (hPa),Sample flow (lpm),Bypass flow (lpm),Sample temperature (°C),Ambient temperature (°C),ASC tube jacket temperature (°C),LED temperature (°C),Box temperature (°C),Sample RH (%),Span deviation,Mass concentration (μg/m³),Mass concentration (μg/m³),Mass concentration (μg/m³)
DateTimeUTC,F1_M11,P_M11,Q1_M11,Q2_M11,T1_M11,T2_M11,T3_M11,T4_M11,T5_M11,U1_M11,ZSPAN_M11,X0_M11,X2_M11,X1_M11
2022-01-10 15:00:00,,0839.5,5.00,0.00,22.6,21.9,00.0,31.6,24.3,06.0,0000.0,0001.10,0000.36,0000.26
2022-01-10 15:01:00,,0839.5,5.01,0.00,22.6,21.9,00.0,31.6,24.3,06.0,0000.0,0001.22,0000.42,0000.28
2022-01-10 15:02:00,,0839.5,5.00,0.00,22.6,21.9,00.0,31.6,24.3,06.0,0000.0,0001.47,0000.53,0000.29
2022-01-10 15:03:00,,0839.5,5.01,0.00,22.6,21.9,00.0,31.5,24.3,06.0,0000.0,0002.56,0000.61,0000.32
2022-01-10 15:04:00,,0839.5,4.99,0.00,22.6,21.9,00.0,31.5,24.3,06.0,0000.0,0003.22,0000.66,0000.34
2022-01-10 15:05:00,,0839.5,5.02,0.00,22.6,21.9,00.0,31.6,24.3,06.0,0000.0,0003.55,0000.73,0000.36
2022-01-10 15:06:00,,0839.5,4.99,0.00,22.6,21.9,00.0,31.6,24.3,06.0,0000.0,0003.64,0000.78,0000.39
2022-01-10 15:07:00,,0839.4,5.00,0.00,22.6,21.9,00.0,31.6,24.3,06.0,0000.0,0003.79,0000.84,0000.40
2022-01-10 15:08:00,,0839.4,5.01,0.00,22.6,21.9,00.0,31.6,24.3,06.0,0000.0,0003.82,0000.85,0000.40
2022-01-10 15:09:00,,0839.4,5.00,0.00,22.6,21.9,00.0,31.6,24.3,06.0,0000.0,0003.84,0000.89,0000.42
2022-01-10 15:10:00,,0839.4,5.00,0.00,22.6,21.9,00.0,31.6,24.4,06.0,0000.0,0003.90,0000.91,0000.43
2022-01-10 15:11:00,,0839.4,5.00,0.00,22.6,21.9,00.0,31.6,24.4,06.0,0000.0,0004.12,0000.98,0000.43
2022-01-10 15:12:00,,0839.4,5.00,0.00,22.6,22.0,00.0,31.6,24.4,06.0,0000.0,0004.11,0000.96,0000.43
2022-01-10 15:13:00,,0839.4,4.99,0.00,22.6,22.0,00.0,31.6,24.4,06.3,0000.0,0004.07,0000.87,0000.42
2022-01-10 15:14:00,,0839.4,5.01,0.00,22.6,22.0,00.0,31.6,24.4,06.6,0000.0,0003.25,0000.84,0000.42
2022-01-10 15:15:00,,0839.4,4.99,0.00,22.7,22.0,00.0,31.6,24.4,06.4,0000.0,0002.73,0000.82,0000.41
2022-01-10 15:16:00,,0839.4,5.00,0.00,22.7,22.0,00.0,31.6,24.4,06.4,0000.0,0002.95,0000.84,0000.40
2022-01-10 15:17:00,,0839.4,5.01,0.00,22.7,22.0,00.0,31.6,24.4,06.4,0000.0,0002.81,0000.90,0000.40
2022-01-10 15:18:00,,0839.4,4.98,0.00,22.7,22.0,00.0,31.6,24.4,06.3,0000.0,0002.81,0000.90,0000.41
2022-01-10 15:19:00,,0839.4,5.00,0.00,22.7,22.0,00.0,31.6,24.4,06.3,0000.0,0002.81,0000.90,0000.42
2022-01-10 15:20:00,,0839.4,5.00,0.00,22.7,22.0,00.0,31.6,24.4,06.3,0000.0,0002.82,0000.90,0000.41
2022-01-10 15:21:00,,0839.4,4.99,0.00,22.7,22.0,00.0,31.6,24.4,06.2,0000.0,0002.90,0000.93,0000.42
2022-01-10 15:22:00,,0839.5,5.01,0.00,22.7,22.1,00.0,31.6,24.4,06.1,0000.0,0002.71,0000.88,0000.42
2022-01-10 15:23:00,,0839.5,5.00,0.00,22.7,22.0,00.0,31.6,24.4,06.3,0000.0,0002.64,0000.89,0000.43
2022-01-10 15:24:00,,0839.5,5.00,0.00,22.7,22.0,00.0,31.6,24.4,06.4,0000.0,0002.63,0000.89,0000.44
2022-01-10 15:25:00,,0839.5,5.00,0.00,22.7,22.0,00.0,31.6,24.4,06.2,0000.0,0003.38,0000.86,0000.43
2022-01-10 15:26:00,,0839.6,5.00,0.00,22.7,22.0,00.0,31.6,24.4,06.1,0000.0,0003.36,0000.85,0000.43
2022-01-10 15:27:00,,0839.6,5.00,0.00,22.7,22.0,00.0,31.6,24.4,06.1,0000.0,0002.97,0000.82,0000.44
2022-01-10 15:28:00,,0839.6,5.00,0.00,22.7,22.0,00.0,31.6,24.4,06.1,0000.0,0002.83,0000.79,0000.43
2022-01-10 15:29:00,,0839.6,5.00,0.00,22.7,22.0,00.0,31.6,24.4,06.0,0000.0,0002.68,0000.77,0000.43
2022-01-10 15:30:00,,0839.7,5.01,0.00,22.7,22.0,00.0,31.6,24.4,06.2,0000.0,0003.09,0000.76,0000.42
2022-01-10 15:31:00,,0839.6,4.99,0.00,22.7,22.0,00.0,31.6,24.4,06.3,0000.0,0003.78,0000.73,0000.42
2022-01-10 15:32:00,,0839.6,5.00,0.00,22.7,22.0,00.0,31.6,24.4,06.1,0000.0,0003.76,0000.72,0000.41
2022-01-10 15:33:00,,0839.6,4.99,0.00,22.7,22.0,00.0,31.6,24.5,06.5,0000.0,0003.82,0000.72,0000.40
2022-01-10 15:34:00,,0839.6,5.01,0.00,22.7,22.1,00.0,31.6,24.5,06.7,0000.0,0003.72,0000.67,0000.39
2022-01-10 15:35:00,,0839.6,5.00,0.00,22.7,22.1,00.0,31.6,24.5,06.4,0000.0,0003.42,0000.64,0000.38
2022-01-10 15:36:00,,0839.6,4.99,0.00,22.7,22.1,00.0,31.6,24.5,06.3,0000.0,0002.46,0000.66,0000.38
2022-01-10 15:37:00,,0839.6,5.00,0.00,22.8,22.1,00.0,31.7,24.5,06.3,0000.0,0002.60,0000.68,0000.38
2022-01-10 15:38:00,,0839.7,5.01,0.00,22.8,22.1,00.0,31.7,24.6,06.3,0000.0,0002.60,0000.68,0000.38
2022-01-10 15:39:00,,0839.7,5.00,0.00,22.8,22.1,00.0,31.7,24.6,06.3,0000.0,0002.44,0000.63,0000.38
2022-01-10 15:40:00,,0839.7,4.99,0.00,22.8,22.1,00.0,31.7,24.6,06.4,0000.0,0002.72,0000.65,0000.37
2022-01-10 15:41:00,,0839.7,5.02,0.00,22.8,22.2,00.0,31.7,24.6,06.5,0000.0,0002.51,0000.65,0000.37
2022-01-10 15:42:00,,0839.7,4.98,0.00,22.8,22.2,00.0,31.7,24.6,06.4,0000.0,0001.69,0000.65,0000.37
2022-01-10 15:43:00,,0839.7,5.01,0.00,22.8,22.2,00.0,31.7,24.7,06.4,0000.0,0002.03,0000.65,0000.37
2022-01-10 15:44:00,,0839.8,4.98,0.00,22.9,22.2,00.0,31.7,24.7,06.3,0000.0,0002.12,0000.65,0000.37
2022-01-10 15:45:00,,0839.8,5.01,0.00,22.9,22.2,00.0,31.7,24.7,06.3,0000.0,0002.77,0000.66,0000.38
2022-01-10 15:46:00,,0839.8,5.00,0.00,22.9,22.2,00.0,31.8,24.7,06.3,0000.0,0003.12,0000.69,0000.38
2022-01-10 15:47:00,,0839.8,4.99,0.00,22.9,22.3,00.0,31.8,24.7,06.3,0000.0,0003.19,0000.70,0000.38
2022-01-10 15:48:00,,0839.8,5.02,0.00,22.9,22.3,00.0,31.8,24.8,06.3,0000.0,0003.11,0000.70,0000.38
2022-01-10 15:49:00,,0839.8,4.99,0.00,22.9,22.3,00.0,31.8,24.8,06.1,0000.0,0003.15,0000.71,0000.39
2022-01-10 15:50:00,,0839.8,5.01,0.00,22.9,22.3,00.0,31.8,24.8,06.2,0000.0,0003.26,0000.74,0000.39
2022-01-10 15:51:00,,0839.8,5.00,0.00,23.0,22.3,00.0,31.8,24.8,06.2,0000.0,0003.03,0000.72,0000.40
2022-01-10 15:52:00,,0839.8,4.99,0.00,23.0,22.3,00.0,31.8,24.8,06.4,0000.0,0003.15,0000.74,0000.40
2022-01-10 15:53:00,,0839.8,5.01,0.00,23.0,22.3,00.0,31.8,24.9,06.5,0000.0,0003.23,0000.76,0000.40
2022-01-10 15:54:00,,0839.8,5.00,0.00,23.0,22.4,00.0,31.9,24.9,06.4,0000.0,0002.96,0000.77,0000.41
2022-01-10 15:55:00,,0839.8,4.99,0.00,23.0,22.4,00.0,31.9,24.9,06.4,0000.0,0002.89,0000.78,0000.42
2022-01-10 15:56:00,,0839.9,5.02,0.00,23.1,22.4,00.0,31.9,24.9,06.3,0000.0,0002.52,0000.80,0000.42
2022-01-10 15:57:00,,0839.9,4.99,0.00,23.1,22.4,00.0,31.9,24.9,06.3,0000.0,0002.28,0000.79,0000.42
2022-01-10 15:58:00,,0839.9,5.00,0.00,23.1,22.4,00.0,31.9,24.9,06.4,0000.0,0002.19,0000.76,0000.42
2022-01-10 15:59:00,,0839.9,5.01,0.00,23.1,22.5,00.0,31.9,25.0,06.3,0000.0,0002.18,0000.76,0000.42
